Year,Month,Day,Hour,Minute,Value (Times are PST for windspeed in km/hr)
2007,02,15,00,00,1.90
2007,02,15,00,01,1.90
2007,02,15,00,02,1.30
2007,02,15,00,03,0.70
2007,02,15,00,04,0.10
2007,02,15,00,05,1.60
2007,02,15,00,06,3.50
2007,02,15,00,07,3.70
2007,02,15,00,08,2.10
2007,02,15,00,09,1.70
2007,02,15,00,10,0.60
2007,02,15,00,11,0.40
2007,02,15,00,12,0.00
2007,02,15,00,13,0.00
2007,02,15,00,14,0.00
2007,02,15,00,15,0.00
2007,02,15,00,16,0.00
2007,02,15,00,17,0.00
2007,02,15,00,18,0.00
2007,02,15,00,19,0.00
2007,02,15,00,20,0.00
2007,02,15,00,21,0.00
2007,02,15,00,22,0.10
2007,02,15,00,23,0.30
2007,02,15,00,24,0.40
2007,02,15,00,25,0.00
2007,02,15,00,26,0.30
2007,02,15,00,27,0.60
2007,02,15,00,28,0.20
2007,02,15,00,29,1.90
2007,02,15,00,30,3.30
2007,02,15,00,31,1.70
2007,02,15,00,32,1.30
2007,02,15,00,33,0.20
2007,02,15,00,34,0.00
2007,02,15,00,35,0.00
2007,02,15,00,36,0.00
2007,02,15,00,37,0.00
2007,02,15,00,38,0.00
2007,02,15,00,39,0.00
2007,02,15,00,40,0.00
2007,02,15,00,41,0.00
2007,02,15,00,42,0.00
2007,02,15,00,43,0.00
2007,02,15,00,44,0.00
2007,02,15,00,45,0.00
2007,02,15,00,46,0.00
2007,02,15,00,47,0.00
2007,02,15,00,48,0.00
2007,02,15,00,49,0.00
2007,02,15,00,50,0.00
2007,02,15,00,51,0.00
2007,02,15,00,52,0.00
2007,02,15,00,53,0.00
2007,02,15,00,54,0.00
2007,02,15,00,55,0.00
2007,02,15,00,56,0.00
2007,02,15,00,57,0.00
2007,02,15,00,58,0.00
2007,02,15,00,59,0.00
2007,02,15,01,00,0.00
2007,02,15,01,01,0.00
2007,02,15,01,02,0.00
2007,02,15,01,03,0.00
2007,02,15,01,04,0.00
2007,02,15,01,05,0.00
2007,02,15,01,06,0.00
2007,02,15,01,07,0.00
2007,02,15,01,08,0.00
2007,02,15,01,09,0.00
2007,02,15,01,10,0.00
2007,02,15,01,11,0.10
2007,02,15,01,12,0.00
2007,02,15,01,13,0.00
2007,02,15,01,14,0.00
2007,02,15,01,15,0.10
2007,02,15,01,16,0.10
2007,02,15,01,17,0.10
2007,02,15,01,18,0.90
2007,02,15,01,19,1.20
2007,02,15,01,20,1.70
2007,02,15,01,21,1.50
2007,02,15,01,22,0.80
2007,02,15,01,23,0.10
2007,02,15,01,24,0.00
2007,02,15,01,25,0.00
2007,02,15,01,26,0.00
2007,02,15,01,27,0.00
2007,02,15,01,28,0.00
2007,02,15,01,29,0.00
2007,02,15,01,30,0.00
2007,02,15,01,31,0.00
2007,02,15,01,32,0.00
2007,02,15,01,33,0.00
2007,02,15,01,34,0.00
2007,02,15,01,35,0.00
2007,02,15,01,36,0.00
2007,02,15,01,37,0.00
2007,02,15,01,38,0.00
2007,02,15,01,39,0.00
2007,02,15,01,40,0.00
2007,02,15,01,41,0.00
2007,02,15,01,42,0.00
2007,02,15,01,43,0.00
2007,02,15,01,44,0.00
2007,02,15,01,45,0.00
2007,02,15,01,46,0.00
2007,02,15,01,47,0.00
2007,02,15,01,48,0.00
2007,02,15,01,49,0.00
2007,02,15,01,50,0.00
2007,02,15,01,51,0.00
2007,02,15,01,52,0.00
2007,02,15,01,53,0.00
2007,02,15,01,54,0.00
2007,02,15,01,55,0.00
2007,02,15,01,56,0.00
2007,02,15,01,57,0.00
2007,02,15,01,58,0.00
2007,02,15,01,59,0.00
2007,02,15,02,00,0.00
2007,02,15,02,01,0.00
2007,02,15,02,02,0.00
2007,02,15,02,03,0.00
2007,02,15,02,04,0.50
2007,02,15,02,05,0.20
2007,02,15,02,06,0.00
2007,02,15,02,07,0.00
2007,02,15,02,08,0.00
2007,02,15,02,09,0.00
2007,02,15,02,10,0.00
2007,02,15,02,11,0.00
2007,02,15,02,12,0.00
2007,02,15,02,13,0.00
2007,02,15,02,14,0.00
2007,02,15,02,15,0.00
2007,02,15,02,16,0.00
2007,02,15,02,17,0.00
2007,02,15,02,18,0.00
2007,02,15,02,19,0.00
2007,02,15,02,20,0.00
2007,02,15,02,21,0.00
2007,02,15,02,22,0.00
2007,02,15,02,23,0.00
2007,02,15,02,24,0.00
2007,02,15,02,25,0.00
2007,02,15,02,26,0.00
2007,02,15,02,27,0.00
2007,02,15,02,28,0.00
2007,02,15,02,29,0.00
2007,02,15,02,30,0.00
2007,02,15,02,31,0.00
2007,02,15,02,32,0.00
2007,02,15,02,33,0.00
2007,02,15,02,34,0.00
2007,02,15,02,35,0.00
2007,02,15,02,36,0.00
2007,02,15,02,37,0.00
2007,02,15,02,38,0.00
2007,02,15,02,39,0.00
2007,02,15,02,40,0.00
2007,02,15,02,41,0.00
2007,02,15,02,42,0.00
2007,02,15,02,43,0.00
2007,02,15,02,44,0.00
2007,02,15,02,45,0.00
2007,02,15,02,46,0.00
2007,02,15,02,47,0.00
2007,02,15,02,48,0.00
2007,02,15,02,49,0.00
2007,02,15,02,50,0.30
2007,02,15,02,51,0.20
2007,02,15,02,52,0.00
2007,02,15,02,53,0.00
2007,02,15,02,54,0.00
2007,02,15,02,55,0.00
2007,02,15,02,56,0.10
2007,02,15,02,57,1.00
2007,02,15,02,58,0.20
2007,02,15,02,59,0.00
2007,02,15,03,00,0.00
2007,02,15,03,01,0.20
2007,02,15,03,02,0.10
2007,02,15,03,03,1.40
2007,02,15,03,04,1.00
2007,02,15,03,05,0.30
2007,02,15,03,06,0.60
2007,02,15,03,07,2.00
2007,02,15,03,08,2.30
2007,02,15,03,09,4.00
2007,02,15,03,10,1.10
2007,02,15,03,11,0.00
2007,02,15,03,12,0.10
2007,02,15,03,13,0.10
2007,02,15,03,14,0.30
2007,02,15,03,15,0.10
2007,02,15,03,16,2.00
2007,02,15,03,17,2.00
2007,02,15,03,18,0.40
2007,02,15,03,19,0.00
2007,02,15,03,20,0.20
2007,02,15,03,21,1.80
2007,02,15,03,22,1.20
2007,02,15,03,23,1.20
2007,02,15,03,24,0.20
2007,02,15,03,25,0.00
2007,02,15,03,26,0.20
2007,02,15,03,27,0.00
2007,02,15,03,28,0.30
2007,02,15,03,29,0.10
2007,02,15,03,30,1.40
2007,02,15,03,31,1.10
2007,02,15,03,32,1.30
2007,02,15,03,33,0.60
2007,02,15,03,34,0.00
2007,02,15,03,35,0.00
2007,02,15,03,36,0.00
2007,02,15,03,37,0.00
2007,02,15,03,38,0.00
2007,02,15,03,39,0.00
2007,02,15,03,40,0.00
2007,02,15,03,41,0.00
2007,02,15,03,42,0.00
2007,02,15,03,43,0.00
2007,02,15,03,44,0.00
2007,02,15,03,45,0.00
2007,02,15,03,46,0.00
2007,02,15,03,47,0.00
2007,02,15,03,48,0.00
2007,02,15,03,49,0.00
2007,02,15,03,50,0.00
2007,02,15,03,51,0.00
2007,02,15,03,52,0.00
2007,02,15,03,53,0.00
2007,02,15,03,54,0.00
2007,02,15,03,55,0.00
2007,02,15,03,56,0.00
2007,02,15,03,57,0.00
2007,02,15,03,58,0.00
2007,02,15,03,59,0.00
2007,02,15,04,00,0.00
2007,02,15,04,01,0.00
2007,02,15,04,02,0.10
2007,02,15,04,03,0.20
2007,02,15,04,04,0.00
2007,02,15,04,05,0.10
2007,02,15,04,06,0.10
2007,02,15,04,07,0.10
2007,02,15,04,08,0.00
2007,02,15,04,09,0.00
2007,02,15,04,10,0.00
2007,02,15,04,11,0.00
2007,02,15,04,12,0.00
2007,02,15,04,13,0.00
2007,02,15,04,14,0.00
2007,02,15,04,15,0.10
2007,02,15,04,16,0.00
2007,02,15,04,17,0.00
2007,02,15,04,18,0.00
2007,02,15,04,19,0.00
2007,02,15,04,20,0.00
2007,02,15,04,21,0.00
2007,02,15,04,22,0.20
2007,02,15,04,23,0.10
2007,02,15,04,24,0.00
2007,02,15,04,25,0.00
2007,02,15,04,26,0.00
2007,02,15,04,27,0.00
2007,02,15,04,28,0.00
2007,02,15,04,29,0.00
2007,02,15,04,30,0.00
2007,02,15,04,31,0.00
2007,02,15,04,32,0.00
2007,02,15,04,33,0.00
2007,02,15,04,34,0.00
2007,02,15,04,35,0.00
2007,02,15,04,36,0.00
2007,02,15,04,37,0.20
2007,02,15,04,38,1.20
2007,02,15,04,39,0.60
2007,02,15,04,40,0.00
2007,02,15,04,41,0.10
2007,02,15,04,42,0.80
2007,02,15,04,43,1.20
2007,02,15,04,44,1.80
2007,02,15,04,45,1.50
2007,02,15,04,46,1.90
2007,02,15,04,47,1.60
2007,02,15,04,48,0.60
2007,02,15,04,49,0.10
2007,02,15,04,50,0.00
2007,02,15,04,51,0.00
2007,02,15,04,52,0.00
2007,02,15,04,53,0.20
2007,02,15,04,54,1.20
2007,02,15,04,55,0.40
2007,02,15,04,56,0.00
2007,02,15,04,57,0.00
2007,02,15,04,58,0.70
2007,02,15,04,59,1.10
2007,02,15,05,00,0.60
2007,02,15,05,01,0.00
2007,02,15,05,02,0.00
2007,02,15,05,03,0.00
2007,02,15,05,04,0.00
2007,02,15,05,05,0.10
2007,02,15,05,06,0.00
2007,02,15,05,07,0.10
2007,02,15,05,08,0.10
2007,02,15,05,09,0.60
2007,02,15,05,10,0.30
2007,02,15,05,11,0.80
2007,02,15,05,12,0.80
2007,02,15,05,13,0.00
2007,02,15,05,14,0.00
2007,02,15,05,15,0.00
2007,02,15,05,16,0.00
2007,02,15,05,17,0.00
2007,02,15,05,18,0.00
2007,02,15,05,19,0.00
2007,02,15,05,20,0.40
2007,02,15,05,21,0.00
2007,02,15,05,22,0.00
2007,02,15,05,23,0.00
2007,02,15,05,24,0.00
2007,02,15,05,25,0.20
2007,02,15,05,26,0.00
2007,02,15,05,27,0.00
2007,02,15,05,28,0.00
2007,02,15,05,29,0.00
2007,02,15,05,30,0.00
2007,02,15,05,31,0.00
2007,02,15,05,32,0.00
2007,02,15,05,33,0.10
2007,02,15,05,34,0.00
2007,02,15,05,35,0.00
2007,02,15,05,36,0.00
2007,02,15,05,37,0.20
2007,02,15,05,38,0.00
2007,02,15,05,39,0.50
2007,02,15,05,40,0.00
2007,02,15,05,41,0.00
2007,02,15,05,42,0.00
2007,02,15,05,43,0.00
2007,02,15,05,44,0.00
2007,02,15,05,45,0.00
2007,02,15,05,46,0.00
2007,02,15,05,47,0.00
2007,02,15,05,48,0.00
2007,02,15,05,49,0.00
2007,02,15,05,50,0.00
2007,02,15,05,51,0.00
2007,02,15,05,52,0.00
2007,02,15,05,53,0.00
2007,02,15,05,54,0.00
2007,02,15,05,55,0.00
2007,02,15,05,56,0.00
2007,02,15,05,57,0.00
2007,02,15,05,58,0.00
2007,02,15,05,59,0.00
2007,02,15,06,00,0.00
2007,02,15,06,01,0.00
2007,02,15,06,02,0.00
2007,02,15,06,03,0.00
2007,02,15,06,04,0.00
2007,02,15,06,05,0.00
2007,02,15,06,06,0.00
2007,02,15,06,07,0.00
2007,02,15,06,08,0.00
2007,02,15,06,09,0.00
2007,02,15,06,10,0.00
2007,02,15,06,11,0.00
2007,02,15,06,12,0.00
2007,02,15,06,13,0.00
2007,02,15,06,14,0.00
2007,02,15,06,15,0.00
2007,02,15,06,16,0.00
2007,02,15,06,17,0.00
2007,02,15,06,18,0.00
2007,02,15,06,19,0.00
2007,02,15,06,20,0.00
2007,02,15,06,21,0.00
2007,02,15,06,22,0.00
2007,02,15,06,23,0.00
2007,02,15,06,24,0.00
2007,02,15,06,25,0.00
2007,02,15,06,26,0.00
2007,02,15,06,27,0.00
2007,02,15,06,28,0.00
2007,02,15,06,29,0.20
2007,02,15,06,30,0.00
2007,02,15,06,31,0.10
2007,02,15,06,32,0.20
2007,02,15,06,33,0.70
2007,02,15,06,34,0.20
2007,02,15,06,35,0.20
2007,02,15,06,36,0.90
2007,02,15,06,37,1.00
2007,02,15,06,38,1.90
2007,02,15,06,39,0.00
2007,02,15,06,40,0.00
2007,02,15,06,41,0.00
2007,02,15,06,42,0.00
2007,02,15,06,43,0.70
2007,02,15,06,44,2.60
2007,02,15,06,45,0.00
2007,02,15,06,46,0.00
2007,02,15,06,47,0.20
2007,02,15,06,48,1.40
2007,02,15,06,49,2.10
2007,02,15,06,50,0.60
2007,02,15,06,51,0.00
2007,02,15,06,52,0.00
2007,02,15,06,53,0.10
2007,02,15,06,54,0.10
2007,02,15,06,55,0.10
2007,02,15,06,56,0.20
2007,02,15,06,57,0.00
2007,02,15,06,58,0.00
2007,02,15,06,59,0.00
2007,02,15,07,00,0.00
2007,02,15,07,01,0.00
2007,02,15,07,02,0.00
2007,02,15,07,03,0.00
2007,02,15,07,04,0.00
2007,02,15,07,05,0.00
2007,02,15,07,06,0.00
2007,02,15,07,07,0.00
2007,02,15,07,08,0.00
2007,02,15,07,09,0.00
2007,02,15,07,10,0.00
2007,02,15,07,11,0.00
2007,02,15,07,12,0.00
2007,02,15,07,13,0.00
2007,02,15,07,14,0.00
2007,02,15,07,15,0.00
2007,02,15,07,16,0.00
2007,02,15,07,17,0.00
2007,02,15,07,18,0.00
2007,02,15,07,19,0.10
2007,02,15,07,20,2.10
2007,02,15,07,21,1.50
2007,02,15,07,22,0.20
2007,02,15,07,23,0.10
2007,02,15,07,24,0.00
2007,02,15,07,25,0.00
2007,02,15,07,26,0.00
2007,02,15,07,27,0.00
2007,02,15,07,28,0.00
2007,02,15,07,29,0.20
2007,02,15,07,30,2.40
2007,02,15,07,31,3.80
2007,02,15,07,32,5.80
2007,02,15,07,33,5.90
2007,02,15,07,34,4.70
2007,02,15,07,35,5.40
2007,02,15,07,36,4.70
2007,02,15,07,37,1.00
2007,02,15,07,38,0.00
2007,02,15,07,39,0.00
2007,02,15,07,40,0.00
2007,02,15,07,41,0.40
2007,02,15,07,42,4.30
2007,02,15,07,43,5.10
2007,02,15,07,44,6.20
2007,02,15,07,45,6.00
2007,02,15,07,46,7.10
2007,02,15,07,47,3.90
2007,02,15,07,48,0.60
2007,02,15,07,49,0.20
2007,02,15,07,50,0.50
2007,02,15,07,51,0.10
2007,02,15,07,52,1.60
2007,02,15,07,53,2.50
2007,02,15,07,54,2.50
2007,02,15,07,55,0.50
2007,02,15,07,56,0.00
2007,02,15,07,57,0.40
2007,02,15,07,58,2.90
2007,02,15,07,59,2.10
2007,02,15,08,00,0.90
2007,02,15,08,01,0.00
2007,02,15,08,02,0.00
2007,02,15,08,03,0.00
2007,02,15,08,04,0.00
2007,02,15,08,05,0.10
2007,02,15,08,06,0.40
2007,02,15,08,07,1.50
2007,02,15,08,08,0.10
2007,02,15,08,09,0.20
2007,02,15,08,10,0.00
2007,02,15,08,11,0.00
2007,02,15,08,12,0.00
2007,02,15,08,13,0.30
2007,02,15,08,14,0.80
2007,02,15,08,15,1.20
2007,02,15,08,16,2.60
2007,02,15,08,17,2.00
2007,02,15,08,18,3.50
2007,02,15,08,19,1.30
2007,02,15,08,20,0.40
2007,02,15,08,21,2.50
2007,02,15,08,22,0.30
2007,02,15,08,23,0.00
2007,02,15,08,24,0.00
2007,02,15,08,25,1.00
2007,02,15,08,26,0.30
2007,02,15,08,27,2.40
2007,02,15,08,28,4.10
2007,02,15,08,29,4.10
2007,02,15,08,30,5.50
2007,02,15,08,31,1.40
2007,02,15,08,32,3.00
2007,02,15,08,33,0.20
2007,02,15,08,34,1.00
2007,02,15,08,35,0.20
2007,02,15,08,36,0.10
2007,02,15,08,37,0.50
2007,02,15,08,38,0.70
2007,02,15,08,39,0.20
2007,02,15,08,40,0.80
2007,02,15,08,41,2.50
2007,02,15,08,42,0.80
2007,02,15,08,43,3.10
2007,02,15,08,44,5.70
2007,02,15,08,45,1.80
2007,02,15,08,46,2.40
2007,02,15,08,47,4.30
2007,02,15,08,48,4.90
2007,02,15,08,49,5.80
2007,02,15,08,50,6.70
2007,02,15,08,51,1.90
2007,02,15,08,52,0.90
2007,02,15,08,53,2.10
2007,02,15,08,54,2.50
2007,02,15,08,55,3.40
2007,02,15,08,56,2.20
2007,02,15,08,57,6.80
2007,02,15,08,58,7.10
2007,02,15,08,59,4.50
2007,02,15,09,00,4.30
2007,02,15,09,01,3.30
2007,02,15,09,02,3.10
2007,02,15,09,03,2.70
2007,02,15,09,04,3.30
2007,02,15,09,05,2.90
2007,02,15,09,06,6.30
2007,02,15,09,07,3.50
2007,02,15,09,08,4.80
2007,02,15,09,09,4.70
2007,02,15,09,10,3.10
2007,02,15,09,11,4.70
2007,02,15,09,12,1.40
2007,02,15,09,13,0.50
2007,02,15,09,14,0.80
2007,02,15,09,15,3.50
2007,02,15,09,16,3.80
2007,02,15,09,17,1.80
2007,02,15,09,18,3.10
2007,02,15,09,19,6.20
2007,02,15,09,20,5.50
2007,02,15,09,21,4.00
2007,02,15,09,22,0.70
2007,02,15,09,23,2.60
2007,02,15,09,24,5.60
2007,02,15,09,25,3.30
2007,02,15,09,26,4.60
2007,02,15,09,27,4.40
2007,02,15,09,28,2.70
2007,02,15,09,29,2.70
2007,02,15,09,30,5.40
2007,02,15,09,31,2.90
2007,02,15,09,32,6.00
2007,02,15,09,33,3.70
2007,02,15,09,34,4.70
2007,02,15,09,35,3.90
2007,02,15,09,36,5.80
2007,02,15,09,37,3.10
2007,02,15,09,38,1.20
2007,02,15,09,39,3.30
2007,02,15,09,40,0.80
2007,02,15,09,41,0.60
2007,02,15,09,42,0.30
2007,02,15,09,43,1.70
2007,02,15,09,44,0.20
2007,02,15,09,45,3.40
2007,02,15,09,46,3.70
2007,02,15,09,47,5.50
2007,02,15,09,48,4.70
2007,02,15,09,49,4.40
2007,02,15,09,50,0.70
2007,02,15,09,51,5.50
2007,02,15,09,52,4.60
2007,02,15,09,53,4.20
2007,02,15,09,54,4.30
2007,02,15,09,55,3.40
2007,02,15,09,56,5.10
2007,02,15,09,57,3.70
2007,02,15,09,58,6.30
2007,02,15,09,59,3.60
2007,02,15,10,00,10.40
2007,02,15,10,01,2.40
2007,02,15,10,02,15.90
2007,02,15,10,03,8.10
2007,02,15,10,04,10.50
2007,02,15,10,05,3.80
2007,02,15,10,06,5.20
2007,02,15,10,07,5.90
2007,02,15,10,08,6.90
2007,02,15,10,09,10.50
2007,02,15,10,10,9.90
2007,02,15,10,11,4.50
2007,02,15,10,12,10.20
2007,02,15,10,13,9.30
2007,02,15,10,14,11.00
2007,02,15,10,15,5.60
2007,02,15,10,16,12.10
2007,02,15,10,17,7.70
2007,02,15,10,18,13.30
2007,02,15,10,19,11.10
2007,02,15,10,20,9.10
2007,02,15,10,21,7.10
2007,02,15,10,22,10.70
2007,02,15,10,23,5.10
2007,02,15,10,24,23.70
2007,02,15,10,25,8.00
2007,02,15,10,26,14.30
2007,02,15,10,27,13.30
2007,02,15,10,28,10.90
2007,02,15,10,29,10.20
2007,02,15,10,30,9.80
2007,02,15,10,31,12.20
2007,02,15,10,32,9.70
2007,02,15,10,33,15.90
2007,02,15,10,34,9.40
2007,02,15,10,35,8.10
2007,02,15,10,36,7.90
2007,02,15,10,37,18.00
2007,02,15,10,38,14.50
2007,02,15,10,39,11.50
2007,02,15,10,40,7.70
2007,02,15,10,41,12.50
2007,02,15,10,42,13.50
2007,02,15,10,43,13.70
2007,02,15,10,44,21.30
2007,02,15,10,45,3.90
2007,02,15,10,46,9.10
2007,02,15,10,47,6.30
2007,02,15,10,48,5.80
2007,02,15,10,49,12.20
2007,02,15,10,50,12.10
2007,02,15,10,51,16.00
2007,02,15,10,52,14.30
2007,02,15,10,53,15.10
2007,02,15,10,54,9.60
2007,02,15,10,55,6.80
2007,02,15,10,56,13.00
2007,02,15,10,57,15.80
2007,02,15,10,58,14.90
2007,02,15,10,59,7.10
2007,02,15,11,00,15.80
2007,02,15,11,01,13.80
2007,02,15,11,02,14.10
2007,02,15,11,03,11.00
2007,02,15,11,04,11.00
2007,02,15,11,05,12.60
2007,02,15,11,06,19.20
2007,02,15,11,07,16.40
2007,02,15,11,08,12.60
2007,02,15,11,09,12.70
2007,02,15,11,10,13.20
2007,02,15,11,11,19.10
2007,02,15,11,12,10.00
2007,02,15,11,13,11.30
2007,02,15,11,14,7.60
2007,02,15,11,15,18.70
2007,02,15,11,16,14.20
2007,02,15,11,17,14.00
2007,02,15,11,18,16.30
2007,02,15,11,19,21.00
2007,02,15,11,20,21.00
2007,02,15,11,21,16.70
2007,02,15,11,22,13.40
2007,02,15,11,23,10.50
2007,02,15,11,24,18.30
2007,02,15,11,25,19.80
2007,02,15,11,26,4.70
2007,02,15,11,27,18.10
2007,02,15,11,28,15.10
2007,02,15,11,29,20.40
2007,02,15,11,30,11.80
2007,02,15,11,31,15.10
2007,02,15,11,32,20.50
2007,02,15,11,33,6.40
2007,02,15,11,34,14.70
2007,02,15,11,35,20.40
2007,02,15,11,36,15.80
2007,02,15,11,37,12.10
2007,02,15,11,38,12.00
2007,02,15,11,39,15.90
2007,02,15,11,40,9.00
2007,02,15,11,41,13.90
2007,02,15,11,42,17.50
2007,02,15,11,43,12.60
2007,02,15,11,44,20.20
2007,02,15,11,45,19.10
2007,02,15,11,46,15.90
2007,02,15,11,47,9.70
2007,02,15,11,48,15.40
2007,02,15,11,49,20.20
2007,02,15,11,50,14.10
2007,02,15,11,51,8.30
2007,02,15,11,52,25.70
2007,02,15,11,53,15.10
2007,02,15,11,54,17.60
2007,02,15,11,55,9.40
2007,02,15,11,56,15.90
2007,02,15,11,57,13.10
2007,02,15,11,58,21.20
2007,02,15,11,59,20.10
2007,02,15,12,00,24.20
2007,02,15,12,01,20.30
2007,02,15,12,02,16.00
2007,02,15,12,03,19.30
2007,02,15,12,04,17.80
2007,02,15,12,05,18.30
2007,02,15,12,06,21.10
2007,02,15,12,07,16.40
2007,02,15,12,08,17.70
2007,02,15,12,09,13.60
2007,02,15,12,10,10.50
2007,02,15,12,11,20.50
2007,02,15,12,12,21.00
2007,02,15,12,13,21.90
2007,02,15,12,14,15.20
2007,02,15,12,15,21.20
2007,02,15,12,16,10.80
2007,02,15,12,17,11.30
2007,02,15,12,18,17.90
2007,02,15,12,19,13.30
2007,02,15,12,20,10.20
2007,02,15,12,21,17.70
2007,02,15,12,22,18.10
2007,02,15,12,23,14.80
2007,02,15,12,24,10.40
2007,02,15,12,25,14.90
2007,02,15,12,26,20.00
2007,02,15,12,27,22.50
2007,02,15,12,28,18.20
2007,02,15,12,29,20.70
2007,02,15,12,30,17.20
2007,02,15,12,31,20.40
2007,02,15,12,32,29.40
2007,02,15,12,33,17.80
2007,02,15,12,34,13.10
2007,02,15,12,35,16.70
2007,02,15,12,36,25.50
2007,02,15,12,37,17.10
2007,02,15,12,38,15.80
2007,02,15,12,39,19.70
2007,02,15,12,40,15.10
2007,02,15,12,41,28.20
2007,02,15,12,42,12.30
2007,02,15,12,43,19.60
2007,02,15,12,44,26.20
2007,02,15,12,45,23.40
2007,02,15,12,46,15.10
2007,02,15,12,47,15.20
2007,02,15,12,48,22.10
2007,02,15,12,49,14.50
2007,02,15,14,07,17.70
2007,02,15,14,08,22.00
2007,02,15,14,09,19.70
2007,02,15,14,10,13.10
2007,02,15,14,11,16.00
2007,02,15,14,12,22.80
2007,02,15,14,13,22.20
2007,02,15,14,14,24.50
2007,02,15,14,15,24.10
2007,02,15,14,16,18.10
2007,02,15,14,17,22.40
2007,02,15,14,18,17.50
2007,02,15,14,19,24.10
2007,02,15,14,20,27.00
2007,02,15,14,21,18.40
2007,02,15,14,22,19.20
2007,02,15,14,23,24.10
2007,02,15,14,24,22.70
2007,02,15,14,25,25.40
2007,02,15,14,26,17.80
2007,02,15,14,27,17.60
2007,02,15,14,28,21.00
2007,02,15,14,29,24.20
2007,02,15,14,30,27.00
2007,02,15,14,31,26.10
2007,02,15,14,32,20.20
2007,02,15,14,33,17.70
2007,02,15,14,34,20.00
2007,02,15,14,35,18.20
2007,02,15,14,36,29.20
2007,02,15,14,37,24.20
2007,02,15,14,38,19.40
2007,02,15,14,39,23.40
2007,02,15,14,40,19.40
2007,02,15,14,41,23.80
2007,02,15,14,42,28.40
2007,02,15,14,43,28.20
2007,02,15,14,44,19.20
2007,02,15,14,45,12.80
2007,02,15,14,46,19.40
2007,02,15,14,47,17.90
2007,02,15,14,48,40.40
2007,02,15,14,49,21.80
2007,02,15,14,50,18.30
2007,02,15,14,51,17.50
2007,02,15,14,52,17.40
2007,02,15,14,53,21.90
2007,02,15,14,54,17.60
2007,02,15,14,55,20.40
2007,02,15,14,56,22.90
2007,02,15,14,57,15.70
2007,02,15,14,58,19.10
2007,02,15,14,59,15.80
2007,02,15,15,00,13.20
2007,02,15,15,01,14.30
2007,02,15,15,02,20.70
2007,02,15,15,03,21.60
2007,02,15,15,04,21.00
2007,02,15,15,05,24.50
2007,02,15,15,06,19.90
2007,02,15,15,07,23.50
2007,02,15,15,08,19.60
2007,02,15,15,09,24.00
2007,02,15,15,10,23.20
2007,02,15,15,11,21.40
2007,02,15,15,12,22.00
2007,02,15,15,13,21.00
2007,02,15,15,14,20.10
2007,02,15,15,15,17.40
2007,02,15,15,16,10.90
2007,02,15,15,17,13.50
2007,02,15,15,18,21.00
2007,02,15,15,19,24.10
2007,02,15,15,20,21.00
2007,02,15,15,21,22.90
2007,02,15,15,22,19.60
2007,02,15,15,23,23.70
2007,02,15,15,24,19.10
2007,02,15,15,25,22.70
2007,02,15,15,26,15.40
2007,02,15,15,27,29.00
2007,02,15,15,28,14.10
2007,02,15,15,29,16.00
2007,02,15,15,30,21.60
2007,02,15,15,31,18.80
2007,02,15,15,32,30.20
2007,02,15,15,33,17.50
2007,02,15,15,34,23.40
2007,02,15,15,35,27.10
2007,02,15,15,36,19.10
2007,02,15,15,37,18.20
2007,02,15,15,38,21.50
2007,02,15,15,39,16.60
2007,02,15,15,40,12.50
2007,02,15,15,41,11.50
2007,02,15,15,42,15.20
2007,02,15,15,43,17.60
2007,02,15,15,44,28.30
2007,02,15,15,45,27.70
2007,02,15,15,46,20.40
2007,02,15,15,47,13.50
2007,02,15,15,48,20.40
2007,02,15,15,49,16.60
2007,02,15,15,50,22.80
2007,02,15,15,51,23.70
2007,02,15,15,52,15.80
2007,02,15,15,53,21.30
2007,02,15,15,54,20.10
2007,02,15,15,55,15.20
2007,02,15,15,56,22.90
2007,02,15,15,57,18.10
2007,02,15,15,58,25.70
2007,02,15,15,59,15.00
2007,02,15,16,00,11.00
2007,02,15,16,01,12.00
2007,02,15,16,02,22.40
2007,02,15,16,03,19.20
2007,02,15,16,04,14.50
2007,02,15,16,05,14.90
2007,02,15,16,06,17.40
2007,02,15,16,07,13.80
2007,02,15,16,08,15.30
2007,02,15,16,09,15.90
2007,02,15,16,10,13.80
2007,02,15,16,11,20.90
2007,02,15,16,12,15.90
2007,02,15,16,13,20.50
2007,02,15,16,14,24.20
2007,02,15,16,15,21.20
2007,02,15,16,16,22.00
2007,02,15,16,17,20.20
2007,02,15,16,18,16.30
2007,02,15,16,19,26.60
2007,02,15,16,20,17.60
2007,02,15,16,21,13.00
2007,02,15,16,22,16.50
2007,02,15,16,23,21.00
2007,02,15,16,24,13.80
2007,02,15,16,25,21.60
2007,02,15,16,26,19.00
2007,02,15,16,27,18.50
2007,02,15,16,28,22.30
2007,02,15,16,29,10.60
2007,02,15,16,30,8.90
2007,02,15,16,31,12.30
2007,02,15,16,32,14.60
2007,02,15,16,33,16.40
2007,02,15,16,34,20.20
2007,02,15,16,35,20.10
2007,02,15,16,36,14.80
2007,02,15,16,37,12.10
2007,02,15,16,38,10.90
2007,02,15,16,39,14.90
2007,02,15,16,40,12.00
2007,02,15,16,41,21.50
2007,02,15,16,42,13.20
2007,02,15,16,43,24.90
2007,02,15,16,44,20.20
2007,02,15,16,45,12.90
2007,02,15,16,46,9.00
2007,02,15,16,47,19.50
2007,02,15,16,48,14.60
2007,02,15,16,49,21.30
2007,02,15,16,50,14.60
2007,02,15,16,51,23.70
2007,02,15,16,52,24.20
2007,02,15,16,53,18.90
2007,02,15,16,54,12.80
2007,02,15,16,55,18.90
2007,02,15,16,56,24.10
2007,02,15,16,57,15.80
2007,02,15,16,58,25.80
2007,02,15,16,59,12.80
2007,02,15,17,00,12.40
2007,02,15,17,01,19.90
2007,02,15,17,02,14.40
2007,02,15,17,03,18.10
2007,02,15,17,04,13.40
2007,02,15,17,05,17.90
2007,02,15,17,06,13.60
2007,02,15,17,07,20.00
2007,02,15,17,08,20.40
2007,02,15,17,09,19.90
2007,02,15,17,10,16.00
2007,02,15,17,11,17.80
2007,02,15,17,12,28.60
2007,02,15,17,13,18.20
2007,02,15,17,14,24.50
2007,02,15,17,15,13.30
2007,02,15,17,16,14.50
2007,02,15,17,17,11.90
2007,02,15,17,18,20.80
2007,02,15,17,19,20.90
2007,02,15,17,20,16.40
2007,02,15,17,21,14.50
2007,02,15,17,22,18.10
2007,02,15,17,23,19.50
2007,02,15,17,24,13.00
2007,02,15,17,25,18.10
2007,02,15,17,26,18.10
2007,02,15,17,27,17.30
2007,02,15,17,28,17.10
2007,02,15,17,29,30.30
2007,02,15,17,30,16.20
2007,02,15,17,31,19.20
2007,02,15,17,32,19.60
2007,02,15,17,33,18.90
2007,02,15,17,34,13.10
2007,02,15,17,35,17.90
2007,02,15,17,36,11.90
2007,02,15,17,37,15.00
2007,02,15,17,38,28.00
2007,02,15,17,39,20.50
2007,02,15,17,40,15.80
2007,02,15,17,41,14.90
2007,02,15,17,42,16.10
2007,02,15,17,43,29.30
2007,02,15,17,44,16.90
2007,02,15,17,45,15.10
2007,02,15,17,46,18.40
2007,02,15,17,47,16.20
2007,02,15,17,48,11.60
2007,02,15,17,49,18.40
2007,02,15,17,50,18.10
2007,02,15,17,51,18.40
2007,02,15,17,52,20.40
2007,02,15,17,53,18.00
2007,02,15,17,54,22.00
2007,02,15,17,55,18.00
2007,02,15,17,56,8.80
2007,02,15,17,57,12.60
2007,02,15,17,58,13.10
2007,02,15,17,59,14.20
2007,02,15,18,00,16.30
2007,02,15,18,01,19.70
2007,02,15,18,02,15.80
2007,02,15,18,03,21.00
2007,02,15,18,04,12.50
2007,02,15,18,05,19.60
2007,02,15,18,06,13.00
2007,02,15,18,07,18.40
2007,02,15,18,08,24.10
2007,02,15,18,09,16.40
2007,02,15,18,10,17.40
2007,02,15,18,11,19.70
2007,02,15,18,12,17.10
2007,02,15,18,13,16.10
2007,02,15,18,14,12.40
2007,02,15,18,15,16.40
2007,02,15,18,16,16.60
2007,02,15,18,17,16.90
2007,02,15,18,18,27.50
2007,02,15,18,19,20.50
2007,02,15,18,20,24.10
2007,02,15,18,21,20.50
2007,02,15,18,22,16.60
2007,02,15,18,23,10.90
2007,02,15,18,24,26.70
2007,02,15,18,25,17.30
2007,02,15,18,26,9.90
2007,02,15,18,27,12.70
2007,02,15,18,28,18.20
2007,02,15,18,29,9.70
2007,02,15,18,30,18.70
2007,02,15,18,31,13.40
2007,02,15,18,32,15.70
2007,02,15,18,33,13.30
2007,02,15,18,34,18.10
2007,02,15,18,35,16.30
2007,02,15,18,36,8.10
2007,02,15,18,37,20.60
2007,02,15,18,38,13.30
2007,02,15,18,39,16.90
2007,02,15,18,40,15.60
2007,02,15,18,41,10.70
2007,02,15,18,42,16.30
2007,02,15,18,43,19.40
2007,02,15,18,44,15.80
2007,02,15,18,45,13.60
2007,02,15,18,46,12.40
2007,02,15,18,47,22.30
2007,02,15,18,48,12.80
2007,02,15,18,49,8.50
2007,02,15,18,50,17.00
2007,02,15,18,51,8.90
2007,02,15,18,52,12.80
2007,02,15,18,53,20.20
2007,02,15,18,54,16.00
2007,02,15,18,55,12.30
2007,02,15,18,56,6.40
2007,02,15,18,57,16.70
2007,02,15,18,58,15.20
2007,02,15,18,59,16.10
2007,02,15,19,00,21.10
2007,02,15,19,01,14.60
2007,02,15,19,02,15.00
2007,02,15,19,03,11.70
2007,02,15,19,04,14.20